Regional Weather Roundup
Issued by NWS Burlington, VT

Home | Current Version | Previous Version | Graphics & Text | Print | Product List | Glossary On
Versions: 1 2 3 4 5 6 7 8 9 10 11 12 13 14 15 16 17 18 19 20 21 22 23 24 25 26 27 28 29 30 31 32 33 34 35 36 37 38 39 40 41 42 43 44 45 46 47 48 49 50
292
ASUS41 KBTV 310610
RWRBTV
VERMONT REGIONAL WEATHER ROUNDUP
NATIONAL WEATHER SERVICE BURLINGTON VT
200 AM EDT SUN JUL 31 2016

NOTE: "FAIR" INDICATES FEW OR NO CLOUDS BELOW 12,000 FEET WITH NO
SIGNIFICANT WEATHER AND/OR OBSTRUCTIONS TO VISIBILITY.

* THESE REPORTS ARE NOT UNDER NWS QUALITY CONTROL AND/OR DO NOT
  REPORT WEATHER SUCH AS PRECIPITATION AND FOG.

VTZ001>019-310700-
_____VERMONT_____


CITY           SKY/WX    TMP DP  RH WIND       PRES   REMARKS
BURLINGTON     FAIR      61  55  81 E6        30.09F
6HR MIN TEMP:  61; 6HR MAX TEMP:  75;

MONTPELIER     FAIR      57  56  96 CALM      30.15F
6HR MIN TEMP:  56; 6HR MAX TEMP:  68;

MORRISVILLE    FAIR      51  49  92 SE3       30.13F FOG
6HR MIN TEMP:  51; 6HR MAX TEMP:  69;

ST. JOHNSBURY*   N/A     57  53  86 MISG      30.11S
6HR MIN TEMP:  57; 6HR MAX TEMP:  71;

LYNDONVILLE*   FAIR      54  52  92 S3        30.14S
6HR MIN TEMP:  53; 6HR MAX TEMP:  68;

MIDDLEBURY*    FAIR      61  61  99 CALM      30.09F
6HR MIN TEMP:  59; 6HR MAX TEMP:  69;

RUTLAND*       CLOUDY    64  59  83 SE5       30.10F
6HR MIN TEMP:  64; 6HR MAX TEMP:  71;

HIGHGATE*      FAIR      56  55  93 E3        30.09F
6HR MIN TEMP:  56; 6HR MAX TEMP:  68;

NEWPORT*       FAIR      51  50  98 CALM      30.13F
6HR MIN TEMP:  50; 6HR MAX TEMP:  66;

BENNINGTON     CLOUDY    66  63  90 CALM      30.08F
6HR MIN TEMP:  66; 6HR MAX TEMP:  72; 6HR PCP:  0.12;


_____LAKE CHAMPLAIN_____


CITY           SKY/WX    TMP DP  RH WIND       PRES   REMARKS
BURTON ISLAND*   N/A     66  57  72 E6          N/A
COLCHESTER RF*   N/A     66  61  82 NW7         N/A
DIAMOND ISL*     N/A     68  57  68 NW2         N/A

$$

NYZ007-026>031-035-052-083-087-310700-
_____NORTHERN NEW YORK_____


CITY           SKY/WX    TMP DP  RH WIND       PRES   REMARKS
PLATTSBURGH    PTCLDY    57  54  89 CALM      30.08F
6HR MIN TEMP:  55; 6HR MAX TEMP:  72;

SARANAC LAKE   PTCLDY    50  47  89 CALM      30.11F
6HR MIN TEMP:  49; 6HR MAX TEMP:  68;

MASSENA        CLEAR     56  53  90 CALM      30.08F
6HR MIN TEMP:  55; 6HR MAX TEMP:  73;

OGDENSBURG*    CLEAR     55  54  94 E3        30.07S
POTSDAM*       CLEAR     57  57 100 CALM      30.08F
WATERTOWN      PTCLDY    64  55  72 E5        30.03F
6HR MIN TEMP:  63; 6HR MAX TEMP:  77;

FT DRUM        MOCLDY    64  57  77 E5        30.04F
6HR MIN TEMP:  64; 6HR MAX TEMP:  74;

ALBANY         LGT RAIN  68  66  93 N3        30.05F
6HR MIN TEMP:  68; 6HR MAX TEMP:  75; 6HR PCP:  0.06;

GLENS FALLS    CLOUDY    69  56  62 CALM      30.07F
6HR MIN TEMP:  67; 6HR MAX TEMP:  74;


$$
NHZ002-005-011-310700-
_____NEW HAMPSHIRE_____


CITY           SKY/WX    TMP DP  RH WIND       PRES   REMARKS
LEBANON        CLOUDY    65  59  81 CALM      30.09F
6HR MIN TEMP:  62; 6HR MAX TEMP:  70;

KEENE          MOCLDY    67  66  97 CALM      30.08F
6HR MIN TEMP:  67; 6HR MAX TEMP:  75; 6HR PCP: TRACE;

MT WASHINGTON  PTCLDY    50  32  50 W12         N/A
6HR MIN TEMP:  47; 6HR MAX TEMP:  51;

PLYMOUTH       CLOUDY    60  58  96 CALM      30.09F
6HR MIN TEMP:  58; 6HR MAX TEMP:  69;

WHITEFIELD     PTCLDY    52  49  89 CALM      30.12F
6HR MIN TEMP:  52; 6HR MAX TEMP:  68;


$$

_____REGIONAL QUEBEC LOCATIONS_____


CITY           SKY/WX    TMP DP  RH WIND       PRES   REMARKS
MONTREAL       PTCLDY    64  57  77 W9        30.08F
QUEBEC CITY    CLEAR     59  54  82 N6        30.09F
SHERBROOKE     CLEAR     52  50  93 E3        30.11S

_____REGIONAL ONTARIO LOCATIONS_____


CITY           SKY/WX    TMP DP  RH WIND       PRES   REMARKS
OTTAWA         PTCLDY    61  54  77 E6        30.08F

______KEY______
VSB  - VISIBILITY IN MILES
WCI  - WIND CHILL INDEX
HX   - HEAT INDEX
$$
NNNN




USA.gov is the U.S. government's official web portal to all federal, state and local government web resources and services.